KAL1972 RKPC-RKSS

Flight info

Callsign KAL1972
Flight time 0h 48m
Altitude 25000
Route KAMIT2E KAMIT Y722 OLMEN OLMEN2T
Aircraft B77W/H-SDE1E2E3FGHIJ2J3J4J5M1RWXY/LB1D1

Departure

Time 2026-05-05 01:45
Airport Jeju International Airport (RKPC)

Arrival

Time 2026-05-05 02:33
Airport Gimpo International Airport (RKSS)
Time Latitude Longitude Altitude Speed Heading
2026-05-05 01:27 33.50814 126.49440 98 ft 0 kts 177°
2026-05-05 01:36 33.50817 126.49440 99 ft 2 kts 177°
2026-05-05 01:37 33.50829 126.49439 98 ft 3 kts 177°
2026-05-05 01:37 33.50849 126.49438 97 ft 3 kts 176°
2026-05-05 01:37 33.50869 126.49437 97 ft 3 kts 176°
2026-05-05 01:37 33.50889 126.49435 97 ft 3 kts 176°
2026-05-05 01:38 33.50910 126.49434 97 ft 3 kts 179°
2026-05-05 01:38 33.50936 126.49435 100 ft 3 kts 198°
2026-05-05 01:38 33.50947 126.49440 97 ft 3 kts 225°
2026-05-05 01:38 33.50954 126.49455 97 ft 3 kts 243°
2026-05-05 01:39 33.50965 126.49470 96 ft 2 kts 231°
2026-05-05 01:39 33.50969 126.49475 96 ft 0 kts 237°
2026-05-05 01:40 33.50970 126.49405 99 ft 19 kts 295°
2026-05-05 01:41 33.51037 126.49273 95 ft 20 kts 262°
2026-05-05 01:41 33.50967 126.49122 96 ft 23 kts 238°
2026-05-05 01:41 33.50879 126.48953 95 ft 24 kts 239°
2026-05-05 01:41 33.50774 126.48747 94 ft 39 kts 238°
2026-05-05 01:42 33.50601 126.48412 97 ft 49 kts 238°
2026-05-05 01:42 33.50426 126.48072 100 ft 47 kts 238°
2026-05-05 01:42 33.50261 126.47749 101 ft 45 kts 238°
2026-05-05 01:42 33.50087 126.47410 103 ft 48 kts 238°
2026-05-05 01:43 33.49923 126.47089 103 ft 37 kts 238°
2026-05-05 01:43 33.49896 126.46951 104 ft 0 kts 303°
2026-05-05 01:43 33.49941 126.46908 103 ft 16 kts 333°
2026-05-05 01:44 33.50044 126.46955 102 ft 19 kts 49°
2026-05-05 01:44 33.50130 126.47116 103 ft 35 kts 58°
2026-05-05 01:44 33.50441 126.47718 101 ft 139 kts 58°
2026-05-05 01:44 33.51091 126.48959 541 ft 194 kts 57°
2026-05-05 01:45 33.51822 126.50258 1891 ft 187 kts 49°
2026-05-05 01:45 33.52747 126.51390 2888 ft 204 kts 44°
2026-05-05 01:45 33.53872 126.52661 3265 ft 242 kts 45°
2026-05-05 01:45 33.55170 126.54117 3962 ft 264 kts 44°
2026-05-05 01:46 33.56548 126.55661 4997 ft 275 kts 43°
2026-05-05 01:46 33.57956 126.57245 6164 ft 279 kts 43°
2026-05-05 01:46 33.59375 126.58849 7376 ft 281 kts 43°
2026-05-05 01:46 33.60809 126.60477 8475 ft 287 kts 44°
2026-05-05 01:47 33.62272 126.62140 9538 ft 293 kts 44°
2026-05-05 01:47 33.63770 126.63849 10522 ft 303 kts 44°
2026-05-05 01:47 33.65440 126.65572 10952 ft 327 kts 31°
2026-05-05 01:47 33.67636 126.66502 11204 ft 357 kts
2026-05-05 01:48 33.70155 126.66897 11866 ft 373 kts
2026-05-05 01:48 33.72763 126.67271 12875 ft 382 kts
2026-05-05 01:48 33.75413 126.67682 14016 ft 387 kts
2026-05-05 01:48 33.78095 126.68131 15067 ft 391 kts
2026-05-05 01:49 33.80808 126.68614 16089 ft 397 kts
2026-05-05 01:49 33.83559 126.69122 17081 ft 403 kts
2026-05-05 01:49 33.86360 126.69650 18061 ft 410 kts
2026-05-05 01:49 33.89197 126.70191 18970 ft 416 kts
2026-05-05 01:50 33.92116 126.70751 19845 ft 422 kts
2026-05-05 01:50 33.95029 126.71311 20724 ft 427 kts
2026-05-05 01:50 33.97939 126.71870 21607 ft 431 kts
2026-05-05 01:50 34.00904 126.72440 22607 ft 432 kts
2026-05-05 01:51 34.03784 126.72995 23743 ft 429 kts
2026-05-05 01:51 34.06728 126.73562 24628 ft 430 kts
2026-05-05 01:51 34.09691 126.74132 25142 ft 431 kts
2026-05-05 01:51 34.12666 126.74703 25183 ft 432 kts
2026-05-05 01:52 34.15626 126.75274 25194 ft 429 kts
2026-05-05 01:52 34.18564 126.75841 25192 ft 426 kts
2026-05-05 01:52 34.21491 126.76406 25192 ft 426 kts
2026-05-05 01:52 34.24413 126.76969 25188 ft 426 kts
2026-05-05 01:53 34.27343 126.77419 25184 ft 423 kts
2026-05-05 01:53 34.30278 126.77749 25187 ft 423 kts
2026-05-05 01:53 34.33214 126.78046 25190 ft 423 kts
2026-05-05 01:53 34.36148 126.78336 25199 ft 424 kts
2026-05-05 01:54 34.39087 126.78631 25198 ft 424 kts
2026-05-05 01:54 34.42034 126.78933 25188 ft 425 kts
2026-05-05 01:54 34.44977 126.79240 25178 ft 425 kts
2026-05-05 01:54 34.47924 126.79552 25181 ft 425 kts
2026-05-05 01:55 34.50870 126.79866 25186 ft 425 kts
2026-05-05 01:55 34.53820 126.80180 25181 ft 425 kts
2026-05-05 01:55 34.56771 126.80496 25188 ft 425 kts
2026-05-05 01:55 34.59718 126.80812 25182 ft 425 kts
2026-05-05 01:56 34.62661 126.81127 25171 ft 424 kts
2026-05-05 01:56 34.65601 126.81442 25177 ft 424 kts
2026-05-05 01:56 34.68538 126.81757 25175 ft 423 kts
2026-05-05 01:56 34.71465 126.82071 25180 ft 422 kts
2026-05-05 01:57 34.74395 126.82385 25181 ft 422 kts
2026-05-05 01:57 34.77324 126.82699 25184 ft 422 kts
2026-05-05 01:57 34.80248 126.83013 25172 ft 422 kts
2026-05-05 01:57 34.83146 126.83324 25177 ft 429 kts
2026-05-05 01:58 34.86167 126.83646 25185 ft 440 kts
2026-05-05 01:58 34.89223 126.83975 25183 ft 442 kts
2026-05-05 01:58 34.92291 126.84307 25172 ft 442 kts
2026-05-05 01:58 34.95350 126.84638 25170 ft 442 kts
2026-05-05 01:59 34.98409 126.84970 25171 ft 441 kts
2026-05-05 01:59 35.01462 126.85300 25173 ft 440 kts
2026-05-05 01:59 35.04516 126.85630 25172 ft 440 kts
2026-05-05 01:59 35.07564 126.85959 25178 ft 440 kts
2026-05-05 02:00 35.10616 126.86290 25168 ft 440 kts
2026-05-05 02:00 35.13663 126.86620 25167 ft 440 kts
2026-05-05 02:00 35.16715 126.86951 25183 ft 440 kts
2026-05-05 02:00 35.19765 126.87281 25178 ft 440 kts
2026-05-05 02:01 35.22814 126.87612 25166 ft 440 kts
2026-05-05 02:01 35.25862 126.87943 25165 ft 440 kts
2026-05-05 02:01 35.28912 126.88275 25173 ft 440 kts
2026-05-05 02:01 35.31957 126.88607 25165 ft 440 kts
2026-05-05 02:02 35.35005 126.88940 25168 ft 439 kts
2026-05-05 02:02 35.38099 126.89273 25187 ft 455 kts
2026-05-05 02:02 35.41292 126.89619 25191 ft 466 kts
2026-05-05 02:02 35.44542 126.89976 25174 ft 469 kts
2026-05-05 02:03 35.47784 126.90334 25161 ft 467 kts
2026-05-05 02:03 35.51008 126.90688 25160 ft 465 kts
2026-05-05 02:03 35.54219 126.91039 25178 ft 464 kts
2026-05-05 02:03 35.57440 126.91390 25176 ft 463 kts
2026-05-05 02:04 35.60640 126.91740 25174 ft 463 kts
2026-05-05 02:04 35.63851 126.92091 25171 ft 463 kts
2026-05-05 02:04 35.67067 126.92443 25166 ft 463 kts
2026-05-05 02:04 35.70248 126.92792 25172 ft 464 kts
2026-05-05 02:05 35.73465 126.93145 25177 ft 464 kts
2026-05-05 02:05 35.76687 126.93499 25176 ft 465 kts
2026-05-05 02:05 35.79904 126.93854 25172 ft 465 kts
2026-05-05 02:05 35.83133 126.94209 25170 ft 465 kts
2026-05-05 02:06 35.86353 126.94564 25169 ft 465 kts
2026-05-05 02:06 35.89584 126.94920 25169 ft 465 kts
2026-05-05 02:06 35.92814 126.95277 25165 ft 465 kts
2026-05-05 02:06 35.96036 126.95633 25164 ft 465 kts
2026-05-05 02:07 35.99261 126.95989 25160 ft 465 kts
2026-05-05 02:07 36.02477 126.96345 25160 ft 464 kts
2026-05-05 02:07 36.05697 126.96702 25161 ft 464 kts
2026-05-05 02:07 36.08911 126.97059 25157 ft 464 kts
2026-05-05 02:08 36.12123 126.97415 25158 ft 464 kts
2026-05-05 02:08 36.15324 126.97771 25154 ft 457 kts
2026-05-05 02:08 36.18432 126.98118 25134 ft 439 kts
2026-05-05 02:08 36.21403 126.98451 25133 ft 421 kts
2026-05-05 02:09 36.24298 126.98773 25137 ft 416 kts
2026-05-05 02:09 36.27170 126.99092 25121 ft 410 kts
2026-05-05 02:09 36.29941 126.99409 24705 ft 397 kts
2026-05-05 02:09 36.32665 126.99707 24455 ft 395 kts
2026-05-05 02:10 36.35388 127.00007 24317 ft 389 kts
2026-05-05 02:10 36.38068 127.00296 24103 ft 385 kts
2026-05-05 02:10 36.40738 127.00354 23795 ft 379 kts 357°
2026-05-05 02:10 36.43358 127.00250 23374 ft 375 kts 356°
2026-05-05 02:11 36.45965 127.00122 22932 ft 374 kts 356°
2026-05-05 02:11 36.48563 127.00012 22495 ft 371 kts 357°
2026-05-05 02:11 36.51131 126.99913 22084 ft 368 kts 358°
2026-05-05 02:11 36.53706 126.99817 21673 ft 376 kts 358°
2026-05-05 02:12 36.56381 126.99718 21251 ft 394 kts 359°
2026-05-05 02:12 36.62055 126.99517 20269 ft 410 kts 359°
2026-05-05 02:12 36.64882 126.99416 19804 ft 406 kts 359°
2026-05-05 02:13 36.67703 126.99315 19335 ft 405 kts 359°
2026-05-05 02:13 36.70517 126.99220 18865 ft 403 kts
2026-05-05 02:13 36.73271 126.99688 18377 ft 400 kts 20°
2026-05-05 02:13 36.75708 127.01285 17877 ft 395 kts 39°
2026-05-05 02:14 36.77740 127.03550 17421 ft 391 kts 43°
2026-05-05 02:14 36.79902 127.05609 16942 ft 391 kts 32°
2026-05-05 02:14 36.82343 127.07094 16508 ft 398 kts 21°
2026-05-05 02:14 36.85072 127.07995 16171 ft 405 kts 10°
2026-05-05 02:15 36.87794 127.08340 15605 ft 382 kts
2026-05-05 02:15 36.90381 127.08453 14920 ft 364 kts
2026-05-05 02:15 36.92913 127.08509 14569 ft 361 kts
2026-05-05 02:15 36.95394 127.08553 14501 ft 351 kts
2026-05-05 02:16 36.97801 127.08591 14429 ft 342 kts
2026-05-05 02:16 37.00196 127.08625 14257 ft 349 kts
2026-05-05 02:16 37.02658 127.08660 14283 ft 359 kts
2026-05-05 02:16 37.05188 127.08695 14317 ft 369 kts
2026-05-05 02:17 37.07740 127.08610 14256 ft 359 kts 352°
2026-05-05 02:17 37.10052 127.07767 13717 ft 337 kts 328°
2026-05-05 02:17 37.11796 127.06073 13756 ft 310 kts 315°
2026-05-05 02:17 37.13282 127.04205 13738 ft 297 kts 312°
2026-05-05 02:18 37.14680 127.02358 13681 ft 287 kts 311°
2026-05-05 02:18 37.16080 127.00492 13251 ft 304 kts 311°
2026-05-05 02:18 37.17601 126.98447 12653 ft 330 kts 311°
2026-05-05 02:18 37.19159 126.96341 12048 ft 336 kts 311°
2026-05-05 02:19 37.20762 126.94173 11443 ft 341 kts 311°
2026-05-05 02:19 37.22375 126.91988 10829 ft 337 kts 311°
2026-05-05 02:19 37.23419 126.90579 10417 ft 328 kts 311°
2026-05-05 02:19 37.24944 126.88520 9805 ft 316 kts 311°
2026-05-05 02:20 37.26418 126.86536 9141 ft 306 kts 311°
2026-05-05 02:20 37.28317 126.83996 8262 ft 290 kts 311°
2026-05-05 02:20 37.29222 126.82793 7875 ft 283 kts 311°
2026-05-05 02:20 37.30556 126.81032 7225 ft 274 kts 311°
2026-05-05 02:21 37.31863 126.79320 6640 ft 269 kts 311°
2026-05-05 02:21 37.33156 126.77642 6195 ft 267 kts 311°
2026-05-05 02:21 37.34457 126.75959 6038 ft 270 kts 311°
2026-05-05 02:21 37.35775 126.74253 5982 ft 274 kts 311°
2026-05-05 02:22 37.37098 126.72541 5967 ft 270 kts 311°
2026-05-05 02:22 37.38388 126.70879 5946 ft 261 kts 311°
2026-05-05 02:22 37.39655 126.69252 5954 ft 260 kts 311°
2026-05-05 02:22 37.40919 126.67633 5952 ft 259 kts 311°
2026-05-05 02:23 37.42183 126.66021 5976 ft 258 kts 311°
2026-05-05 02:23 37.43444 126.64412 5955 ft 258 kts 311°
2026-05-05 02:23 37.44704 126.62800 5951 ft 258 kts 311°
2026-05-05 02:23 37.45773 126.61433 5954 ft 258 kts 311°
2026-05-05 02:24 37.47031 126.59825 5968 ft 257 kts 311°
2026-05-05 02:24 37.48310 126.58280 5937 ft 252 kts 321°
2026-05-05 02:24 37.49801 126.57176 5943 ft 244 kts 329°
2026-05-05 02:24 37.51319 126.56248 5946 ft 243 kts 331°
2026-05-05 02:25 37.52858 126.55325 5816 ft 247 kts 331°
2026-05-05 02:25 37.54409 126.54397 5600 ft 246 kts 331°
2026-05-05 02:25 37.55944 126.53482 5387 ft 243 kts 331°
2026-05-05 02:25 37.57466 126.52582 5175 ft 241 kts 331°
2026-05-05 02:26 37.58985 126.51687 4970 ft 241 kts 331°
2026-05-05 02:26 37.60505 126.50789 4770 ft 241 kts 331°
2026-05-05 02:26 37.62042 126.49912 4496 ft 245 kts 339°
2026-05-05 02:26 37.63748 126.49736 4223 ft 252 kts 10°
2026-05-05 02:27 37.65318 126.50680 3988 ft 253 kts 42°
2026-05-05 02:27 37.66398 126.52387 3851 ft 248 kts 58°
2026-05-05 02:27 37.67302 126.54244 3596 ft 249 kts 60°
2026-05-05 02:27 37.68196 126.56119 3336 ft 250 kts 60°
2026-05-05 02:28 37.69089 126.57993 3107 ft 248 kts 61°
2026-05-05 02:28 37.69834 126.59919 2823 ft 243 kts 79°
2026-05-05 02:28 37.69779 126.61941 2528 ft 219 kts 115°
2026-05-05 02:28 37.68945 126.63331 2208 ft 187 kts 152°
2026-05-05 02:29 37.67868 126.64154 1965 ft 181 kts 148°
2026-05-05 02:29 37.66873 126.65121 1728 ft 181 kts 146°
2026-05-05 02:29 37.65887 126.66156 1488 ft 184 kts 141°
2026-05-05 02:29 37.65015 126.67207 1454 ft 163 kts 140°
2026-05-05 02:30 37.64272 126.68144 1371 ft 144 kts 141°
2026-05-05 02:30 37.63569 126.69031 1359 ft 140 kts 141°
2026-05-05 02:30 37.62890 126.69887 1367 ft 142 kts 140°
2026-05-05 02:30 37.62172 126.70791 1376 ft 145 kts 139°
2026-05-05 02:31 37.61451 126.71707 1385 ft 153 kts 141°
2026-05-05 02:31 37.60708 126.72646 1186 ft 148 kts 140°
2026-05-05 02:31 37.60007 126.73533 974 ft 138 kts 140°
2026-05-05 02:31 37.59326 126.74392 822 ft 140 kts 141°
2026-05-05 02:32 37.58636 126.75274 589 ft 141 kts 138°
2026-05-05 02:32 37.57936 126.76166 398 ft 146 kts 139°
2026-05-05 02:32 37.57218 126.77070 225 ft 145 kts 138°
2026-05-05 02:32 37.56516 126.77952 56 ft 136 kts 138°
2026-05-05 02:33 37.55927 126.78684 55 ft 97 kts 135°
2026-05-05 02:33 37.55594 126.79107 57 ft 41 kts 135°
2026-05-05 02:33 37.55482 126.79287 61 ft 23 kts 110°
2026-05-05 02:33 37.55448 126.79431 61 ft 0 kts 104°
2026-05-05 02:34 37.55446 126.79441 61 ft 8 kts 104°
2026-05-05 02:34 37.55434 126.79563 63 ft 15 kts 84°
2026-05-05 02:34 37.55482 126.79716 60 ft 27 kts 65°
2026-05-05 02:34 37.55452 126.79952 62 ft 28 kts 110°
2026-05-05 02:35 37.55461 126.80163 65 ft 25 kts 52°
2026-05-05 02:35 37.55590 126.80301 66 ft 22 kts
2026-05-05 02:35 37.55713 126.80190 64 ft 22 kts 315°
2026-05-05 02:35 37.55830 126.80091 65 ft 17 kts 12°
2026-05-05 02:36 37.55879 126.80145 63 ft 0 kts 45°
2026-05-05 02:36 37.55883 126.80150 64 ft 2 kts 45°